Zurück zum Katalog

HEAD-3C

AktivKommunikationLEO
NORAD 57628·PAYLOAD·🇨🇳 China

Gestartet Aug 14, 2023 von Xichang Satellite Launch Center

Loading…

Nächste Überflüge (nächste 24 Stunden)

TLE

AktuellSource: Space-Track

Epoche: Sep 14, 2026, 09:39 UTC

1 57628U 23121C   26257.40271812  .00000409  00000-0  11196-3 0  9998
2 57628  44.9975 219.4504 0006632   2.9636 357.1260 14.62371906164796

Verfolge HEAD-3C in Echtzeit mit AllMySat

Download on the App Store